Clinton-Sherman, OK

12:03 AM CDT on September 22, 2017 (GMT -0500)
Clinton-Sherman

Weather History for KCSM - November, 2012

Change the Weather History Date:

Thursday, November 15, 2012

  Actual Average Record
Temperature  
Mean Temperature 48 °F -  
Max Temperature 61 °F 57 °F 82 °F (2016)
Min Temperature 36 °F 39 °F 24 °F (1997)
Degree Days  
Heating Degree Days 16    
Moisture  
Dew Point 32 °F    
Average Humidity 57    
Maximum Humidity 82    
Minimum Humidity 39    
Precipitation  
Precipitation 0.00 in - - ()
Sea Level Pressure  
Sea Level Pressure 30.25 in    
Wind  
Wind Speed 11 mph (SSE)    
Max Wind Speed 15 mph    
Max Gust Speed -    
Visibility 10 miles    
Events      
Averages and records for this station are not official NWS values.
T = Trace of Precipitation, MM = Missing Value Source: NWS Daily Summary

Daily Weather History Graph

Daily Weather History Graph

Search for Another Location

Airport or City:

Trip Planner

Search our weather history database for the weather conditions in past years. The results will help you decide how hot, cold, wet, or windy it might be!

Date:

Astronomy

Nov. 15, 2012 Rise Set
Actual Time 7:12 AM CST 5:30 PM CST
Civil Twilight 6:45 AM CST 5:57 PM CST
Nautical Twilight 6:14 AM CST 6:27 PM CST
Astronomical Twilight 5:44 AM CST 6:58 PM CST
Moon 9:07 AM CST (11/15) 7:25 PM CST (11/15)
Length of Visible Light 11h 11m
Length of Day
10h 17m
Waxing Crescent, 5% of the Moon is Illuminated
Nov 15
Waxing Crescent
Nov 20
First Quarter
Nov 28
Full
Dec 6
Last Quarter
Dec 13
New

Hourly Weather History & Observations

Time (CST) Temp. Windchill Dew Point Humidity Pressure Visibility Wind Dir Wind Speed Gust Speed Precip Events Conditions
12:53 AM 41.0 °F 33.9 °F 25.0 °F 53% 30.22 in 10.0 mi SSE 12.7 mph - N/A   Clear
1:53 AM 37.0 °F 29.8 °F 25.0 °F 62% 30.21 in 10.0 mi South 10.4 mph - N/A   Clear
2:53 AM 37.9 °F 30.5 °F 25.0 °F 60% 30.20 in 10.0 mi South 11.5 mph - N/A   Clear
3:53 AM 39.9 °F 32.1 °F 25.0 °F 55% 30.20 in 10.0 mi South 13.8 mph - N/A   Clear
4:53 AM 37.0 °F 29.8 °F 24.1 °F 59% 30.21 in 10.0 mi SSE 10.4 mph - N/A   Clear
5:53 AM 37.0 °F 28.9 °F 25.0 °F 62% 30.21 in 10.0 mi South 12.7 mph - N/A   Clear
6:53 AM 36.0 °F 28.0 °F 24.1 °F 62% 30.22 in 10.0 mi South 11.5 mph - N/A   Clear
7:53 AM 37.9 °F 30.9 °F 26.1 °F 62% 30.22 in 10.0 mi South 10.4 mph - N/A   Clear
8:53 AM 45.0 °F 38.9 °F 26.1 °F 48% 30.23 in 10.0 mi South 12.7 mph - N/A   Clear
9:53 AM 48.9 °F - 28.0 °F 44% 30.25 in 10.0 mi South 12.7 mph - N/A   Clear
10:53 AM 54.0 °F - 30.0 °F 40% 30.24 in 10.0 mi South 15.0 mph - N/A   Clear
11:53 AM 55.9 °F - 30.9 °F 39% 30.23 in 10.0 mi South 13.8 mph - N/A   Clear
12:53 PM 57.9 °F - 36.0 °F 44% 30.21 in 10.0 mi SSW 13.8 mph - N/A   Clear
1:53 PM 59.0 °F - 37.9 °F 46% 30.20 in 10.0 mi SSW 9.2 mph - N/A   Clear
2:53 PM 61.0 °F - 39.0 °F 44% 30.19 in 10.0 mi South 12.7 mph - N/A   Clear
3:53 PM 60.1 °F - 37.9 °F 44% 30.20 in 10.0 mi South 9.2 mph - N/A   Clear
4:53 PM 57.9 °F - 37.9 °F 47% 30.23 in 10.0 mi SW 5.8 mph - N/A   Clear
5:53 PM 55.0 °F - 37.0 °F 51% 30.26 in 10.0 mi East 3.5 mph - N/A   Clear
6:53 PM 52.0 °F - 39.0 °F 61% 30.29 in 10.0 mi ESE 5.8 mph - N/A   Clear
7:53 PM 50.0 °F - 41.0 °F 71% 30.32 in 10.0 mi ESE 8.1 mph - N/A   Clear
8:53 PM 48.0 °F - 39.9 °F 74% 30.32 in 10.0 mi East 6.9 mph - N/A   Clear
9:53 PM 46.0 °F 41.9 °F 39.0 °F 76% 30.34 in 10.0 mi ESE 8.1 mph - N/A   Clear
10:53 PM 46.0 °F 41.4 °F 39.0 °F 76% 30.35 in 10.0 mi SE 9.2 mph - N/A   Clear
11:53 PM 41.0 °F 35.8 °F 36.0 °F 82% 30.36 in 10.0 mi SSE 8.1 mph - N/A   Clear